DW6659 Weather Reports


Display with metric or nautical units.
time (UTC)temp
F
wind
direction
speed
MPH
gust
MPH
rain 1hr
in
rain 24hr
in
rain mn
in
humidity
%
barometer
mb
20260506043902 53 0 0.0 0.0 0.00 0.00 0.00 94 1016.7
20260506043401 53 0 0.0 0.0 0.00 0.00 0.00 94 1016.7
20260506042901 53 0 0.0 0.0 0.00 0.00 0.00 93 1016.6
20260506042401 53 0 0.0 0.0 0.00 0.00 0.00 93 1016.6
20260506041902 53 0 0.0 0.0 0.00 0.00 0.00 93 1016.6
20260506041402 54 0 0.0 0.0 0.00 0.00 0.00 93 1016.5
20260506040901 54 0 0.0 0.0 0.00 0.00 0.00 93 1016.5
20260506040401 54 0 0.0 0.0 0.00 0.00 0.00 92 1016.5
20260506035901 54 0 0.0 0.0 0.00 0.00 0.00 91 1016.5
20260506035401 54 0 0.0 0.0 0.00 0.00 0.00 91 1016.4
20260506034901 55 0 0.0 0.0 0.00 0.00 0.00 91 1016.3
20260506034402 56 0 0.0 0.0 0.00 0.00 0.00 90 1016.2
20260506033901 56 0 0.0 0.0 0.00 0.00 0.00 89 1016.1
20260506033402 57 0 0.0 0.0 0.00 0.00 0.00 89 1016.0
20260506032401 58 0 0.0 0.0 0.00 0.00 0.00 87 1016.0
20260506031902 58 0 0.0 0.0 0.00 0.00 0.00 87 1015.9
20260506031401 59 0 0.0 0.0 0.00 0.00 0.00 87 1015.9
20260506030401 60 0 0.0 0.0 0.00 0.00 0.00 86 1015.8
20260506025902 60 0 0.0 0.0 0.00 0.00 0.00 85 1015.7
20260506025402 60 0 0.0 0.0 0.00 0.00 0.00 84 1015.7
20260506024902 60 0 0.0 0.0 0.00 0.00 0.00 84 1015.8
20260506024401 60 0 0.0 0.0 0.00 0.00 0.00 83 1015.7
20260506023901 60 0 0.0 0.0 0.00 0.00 0.00 83 1015.6
20260506023401 61 0 0.0 0.0 0.00 0.00 0.00 83 1015.7
20260506022902 61 0 0.0 0.0 0.00 0.00 0.00 82 1015.7
20260506022401 61 0 0.0 0.0 0.00 0.00 0.00 82 1015.7
20260506021902 61 0 0.0 0.0 0.00 0.00 0.00 82 1015.7
20260506021402 61 0 0.0 0.0 0.00 0.00 0.00 82 1015.6
20260506020902 61 0 0.0 0.0 0.00 0.00 0.00 82 1015.6
20260506015402 61 0 0.0 1.0 0.00 0.00 0.00 81 1015.6
20260506014901 61 0 0.0 1.0 0.00 0.00 0.00 81 1015.6
20260506014402 61 0 0.0 1.0 0.00 0.00 0.00 81 1015.6
20260506013902 61 0 0.0 1.0 0.00 0.00 0.00 81 1015.6
20260506013403 61 0 0.0 0.0 0.00 0.00 0.00 81 1015.5
20260506012902 62 0 0.0 1.0 0.00 0.00 0.00 80 1015.6
20260506012403 61 0 0.0 1.0 0.00 0.00 0.00 80 1015.6
20260506011902 61 0 0.0 1.0 0.00 0.00 0.00 80 1015.6
20260506011402 61 0 0.0 1.0 0.00 0.00 0.00 81 1015.6
20260506010402 61 0 0.0 0.0 0.00 0.00 0.00 80 1015.5
20260506005902 61 0 0.0 1.0 0.00 0.00 0.00 80 1015.6
20260506004902 61 109 1.0 2.0 0.00 0.00 0.00 80 1015.6
20260506004402 61 108 1.0 2.0 0.00 0.00 0.00 79 1015.6
20260506003902 62 108 1.0 2.0 0.00 0.00 0.00 79 1015.7
20260506002902 62 143 1.0 2.0 0.00 0.00 0.00 78 1015.6
20260506001901 62 0 0.0 2.0 0.00 0.00 0.00 79 1015.6
20260506001403 62 0 0.0 1.0 0.00 0.00 0.00 79 1015.7
20260506000403 61 62 1.0 3.0 0.00 0.00 0.00 79 1015.8
20260505235902 61 90 1.0 3.0 0.00 0.00 0.00 80 1015.9
20260505235402 62 136 2.0 4.0 0.00 0.00 0.00 79 1015.9
20260505233902 62 171 1.0 4.0 0.00 0.00 0.00 80 1016.0
20260505233402 62 199 1.0 4.0 0.00 0.00 0.00 80 1016.0
20260505232902 62 255 1.0 2.0 0.00 0.00 0.00 80 1016.0
20260505231902 62 275 1.0 4.0 0.00 0.00 0.00 79 1016.1
20260505231403 62 0 0.0 1.0 0.00 0.00 0.00 80 1016.0
20260505230902 61 0 0.0 1.0 0.00 0.00 0.00 80 1016.1
20260505230403 61 0 0.0 2.0 0.00 0.00 0.00 81 1016.1
20260505225902 61 355 1.0 5.0 0.00 0.00 0.00 82 1016.1
20260505225402 61 337 1.0 5.0 0.00 0.00 0.00 81 1016.1
20260505224402 61 326 2.0 5.0 0.00 0.00 0.00 80 1016.3
20260505223902 61 328 2.0 3.0 0.00 0.00 0.00 81 1016.3
20260505223402 61 305 1.0 3.0 0.00 0.00 0.00 80 1016.3
20260505222902 61 292 1.0 3.0 0.00 0.00 0.00 81 1016.3
20260505222402 61 9 1.0 3.0 0.00 0.00 0.00 80 1016.3
20260505221902 61 123 1.0 3.0 0.00 0.00 0.00 80 1016.3
20260505221403 61 218 1.0 2.0 0.00 0.00 0.00 80 1016.4
20260505220902 61 0 0.0 2.0 0.00 0.00 0.00 80 1016.4
20260505220403 61 0 0.0 2.0 0.00 0.00 0.00 80 1016.4
20260505215903 61 0 0.0 2.0 0.00 0.00 0.00 81 1016.5
20260505215402 61 315 1.0 5.0 0.00 0.00 0.00 82 1016.5
20260505214902 60 324 2.0 5.0 0.00 0.00 0.00 83 1016.5
20260505214402 60 332 2.0 4.0 0.00 0.00 0.00 82 1016.4
20260505213902 60 342 1.0 4.0 0.00 0.00 0.00 81 1016.5
20260505213402 60 348 1.0 2.0 0.00 0.00 0.00 82 1016.5
20260505212902 60 41 2.0 4.0 0.00 0.00 0.00 82 1016.5
20260505212401 60 35 2.0 4.0 0.00 0.00 0.00 83 1016.5
20260505211402 60 331 1.0 4.0 0.00 0.00 0.00 81 1016.5
20260505210902 60 234 1.0 3.0 0.00 0.00 0.00 81 1016.5
20260505210403 60 90 1.0 3.0 0.00 0.00 0.00 82 1016.5
20260505205902 60 59 2.0 4.0 0.00 0.00 0.00 82 1016.5
20260505204902 60 66 2.0 5.0 0.00 0.00 0.00 81 1016.6
20260505204402 60 72 3.0 8.0 0.00 0.00 0.00 82 1016.6
20260505203902 60 88 3.0 8.0 0.00 0.00 0.00 82 1016.6
20260505203402 61 67 2.0 8.0 0.00 0.00 0.00 80 1016.6
20260505202902 61 274 2.0 4.0 0.00 0.00 0.00 80 1016.6
20260505201902 61 199 2.0 6.0 0.00 0.00 0.00 80 1016.6
20260505200902 60 193 1.0 3.0 0.00 0.00 0.00 83 1016.8
20260505200403 60 288 2.0 5.0 0.00 0.00 0.00 82 1016.8
20260505195902 60 316 1.0 5.0 0.00 0.00 0.00 82 1016.8
20260505195402 61 0 0.0 3.0 0.00 0.00 0.00 82 1016.9
20260505194902 60 0 0.0 2.0 0.00 0.00 0.00 82 1016.9
20260505194403 60 137 1.0 3.0 0.00 0.00 0.00 84 1016.8
20260505193903 59 120 2.0 5.0 0.00 0.00 0.00 85 1016.9
20260505191401 57 11 1.0 3.0 0.00 0.00 0.00 88 1016.9
20260505183902 57 204 1.0 4.0 0.00 0.00 0.00 89 1017.0
20260505182903 57 240 2.0 5.0 0.00 0.00 0.00 90 1017.0
20260505181902 57 238 1.0 4.0 0.00 0.00 0.00 90 1016.9
20260505181403 57 153 1.0 3.0 0.00 0.00 0.00 90 1016.9
20260505180903 56 151 1.0 2.0 0.00 0.00 0.00 92 1017.0
20260505174903 55 221 1.0 3.0 0.00 0.00 0.00 91 1016.9
20260505173902 55 175 1.0 4.0 0.00 0.00 0.00 92 1016.8
20260505172902 55 346 1.0 2.0 0.00 0.00 0.00 94 1016.7
20260505171402 54 236 1.0 4.0 0.00 0.00 0.00 94 1016.6
20260505170403 54 0 0.0 3.0 0.00 0.00 0.00 95 1016.6
20260505164903 53 334 1.0 3.0 0.00 0.00 0.00 95 1016.5
20260505163903 53 0 0.0 2.0 0.00 0.00 0.00 96 1016.5
20260505163402 53 0 0.0 1.0 0.00 0.00 0.00 96 1016.5
20260505162903 53 0 0.0 1.0 0.00 0.00 0.00 96 1016.5
20260505161901 53 0 0.0 1.0 0.00 0.00 0.00 96 1016.4
20260505161403 53 0 0.0 1.0 0.00 0.00 0.00 96 1016.4
20260505152903 52 0 0.0 2.0 0.00 0.00 0.00 96 1016.4
20260505151402 52 0 0.0 0.0 0.00 0.00 0.00 96 1016.3
20260505150902 52 0 0.0 0.0 0.00 0.00 0.00 96 1016.2
20260505121903 52 0 0.0 0.0 0.00 0.00 0.00 94 1015.2
20260505120902 52 0 0.0 0.0 0.00 0.00 0.00 93 1015.1
20260505115403 52 0 0.0 0.0 0.00 0.00 0.00 94 1015.0
20260505114903 52 0 0.0 0.0 0.00 0.00 0.00 93 1014.9
20260505113903 52 0 0.0 0.0 0.00 0.00 0.00 93 1015.0
20260505113403 52 0 0.0 0.0 0.00 0.00 0.00 93 1015.0
20260505110903 52 0 0.0 0.0 0.00 0.00 0.00 93 1014.8
20260505101404 52 0 0.0 0.0 0.00 0.00 0.00 93 1014.5
20260505100902 52 0 0.0 0.0 0.00 0.00 0.00 93 1014.5
20260505095402 52 0 0.0 0.0 0.00 0.00 0.00 93 1014.5
20260505093903 52 0 0.0 1.0 0.00 0.00 0.00 93 1014.4
20260505092903 52 0 0.0 0.0 0.00 0.00 0.00 93 1014.3
20260505091403 52 0 0.0 0.0 0.00 0.00 0.00 93 1014.3
20260505085903 52 0 0.0 0.0 0.00 0.00 0.00 92 1014.2
20260505083403 52 0 0.0 0.0 0.00 0.00 0.00 92 1014.1
20260505082903 52 0 0.0 0.0 0.00 0.00 0.00 92 1014.1
20260505081902 53 0 0.0 0.0 0.00 0.00 0.00 91 1014.0
20260505081404 53 0 0.0 0.0 0.00 0.00 0.00 91 1014.1
20260505080903 53 0 0.0 0.0 0.00 0.00 0.00 91 1014.1
20260505080404 53 0 0.0 1.0 0.00 0.00 0.00 91 1014.1
20260505075403 53 0 0.0 2.0 0.00 0.00 0.00 91 1014.1
20260505074903 53 0 0.0 2.0 0.00 0.00 0.00 91 1014.1
20260505073403 53 0 0.0 2.0 0.00 0.00 0.00 91 1013.8
20260505071903 54 0 0.0 0.0 0.00 0.00 0.00 90 1013.6
20260505071403 54 0 0.0 0.0 0.00 0.00 0.00 90 1013.5
20260505070904 54 0 0.0 0.0 0.00 0.00 0.00 89 1013.5
20260505065910 54 0 0.0 0.0 0.00 0.00 0.00 89 1013.4
20260505064903 54 0 0.0 0.0 0.00 0.00 0.00 88 1013.3
20260505063404 55 287 1.0 3.0 0.00 0.00 0.00 87 1013.2
20260505061903 56 212 2.0 6.0 0.00 0.00 0.00 86 1013.2
20260505061404 56 240 1.0 4.0 0.00 0.00 0.00 86 1013.1
20260505060903 56 278 1.0 3.0 0.00 0.00 0.00 86 1013.0
20260505055903 57 0 0.0 2.0 0.00 0.00 0.00 86 1013.0
20260505055404 57 220 1.0 4.0 0.00 0.00 0.00 86 1013.0
20260505054904 57 229 1.0 4.0 0.00 0.00 0.00 86 1012.9
20260505053903 57 0 0.0 3.0 0.00 0.00 0.00 86 1012.9
20260505052903 57 0 0.0 4.0 0.00 0.00 0.00 86 1012.9
20260505052404 57 0 0.0 4.0 0.00 0.00 0.00 87 1012.8
20260505051903 58 0 0.0 2.0 0.00 0.00 0.00 87 1012.8
20260505050903 58 0 0.0 1.0 0.00 0.00 0.00 86 1012.8
20260505050404 58 0 0.0 1.0 0.00 0.00 0.00 85 1012.9